Preview of NWS' New Version of Forecast
This preview is not operational and should not be used for support decisions.

Regional Weather Roundup (RWR)

Issued by National Weather Service (NWS)

                            
000
ASUS42 KTBW 180215
RWRFL 
FLORIDA REGIONAL WEATHER ROUNDUP
NATIONAL WEATHER SERVICE TAMPA BAY RUSKIN FL
1000 PM EDT MON JUN 17 2019

NOTE: "FAIR" INDICATES FEW OR NO CLOUDS BELOW 12,000 FEET WITH NO
SIGNIFICANT WEATHER AND/OR OBSTRUCTIONS TO VISIBILITY.

FLZ001>010-012>015-112-114-115-180300-
PANHANDLE FLORIDA
  
CITY           SKY/WX    TMP DP  RH WIND       PRES   REMARKS
PENSACOLA      MOCLDY    80  74  81 SE5       29.98R                  
PENSACOLA NAS  MOCLDY    83  75  77 S8        29.97R                  
MILTON NAS     MOCLDY    80  74  81 S7        29.98S                  
CRESTVIEW      FAIR      81  72  74 S3        30.01R                  
DUKE FIELD     FOG       79  73  83 MISG      30.00R VSB 1/2          
VALPARAISO     PTCLDY    83  73  70 S8        30.00R                  
MARY ESTHER    PTCLDY    83  74  73 S5        29.97S                  
TRI COUNTY     MOCLDY    80  74  81 CALM      30.01                   
PANAMA CITY    MOCLDY    81  74  79 CALM      30.00R                  
TYNDALL AFB    FAIR      78  74  85 E3        29.99R                  
APALACHICOLA   FAIR      81  73  76 S6        30.00R                  

STATION/POSITION SKY/WX   TEMP    WIND        PRES    WAVE   SWELL
                          AIR SEA DIR/SP/G            HT/PER HT/PER
                          (F)     (DEG/KT/KT) (MB)    (FT/S) (FT/S)
30.1N   87.6W                                   N/A     2/ 3
29.2N   88.2W                     160/ 10/ 12 1015.2F   2/ 4   2/ 5
PANAMA CITY BEAC           83 86  160/  9/ 11 1015.8
TOWER C          NOT AVBL

$$
FLZ011-016>038-118-127-128-134-139-239-180300-
NORTH FLORIDA
  
CITY           SKY/WX    TMP DP  RH WIND       PRES   REMARKS
MARIANNA       FAIR      80  74  81 S3        29.99R                  
TALLAHASSEE    MOCLDY    78  73  84 E8        30.01R                  
PERRY          FAIR      76  75  97 SE3       30.03R                  
LIVE OAK       PTCLDY    73  73 100 CALM      30.03S                  
CROSS CITY     FAIR      75  74  98 CALM      30.03R                  
LAKE CITY      FAIR      72  70  94 CALM      30.05R                  
GAINESVILLE    FAIR      78  73  84 CALM      30.06R                  
PALATKA        FAIR      73  73 100 CALM      30.05R                  
MAYPORT NAS    MOCLDY    80  73  79 SE13G24   30.04R                  
JACKSONVILLE   MOCLDY    78  72  81 SE9       30.04R                  
JAX NAS        MOCLDY    80  72  76 SE10      30.05R                  
JAX CECIL      CLOUDY    77  72  83 E5        30.04R                  
FERNANDINA BEA FAIR      80  73  79 S12       30.05R                  
ST AUGUSTINE   FAIR      78  75  90 MISG      30.05R                  
PALM COAST     FAIR      77  73  87 SE6       30.04R                  

STATION/POSITION SKY/WX   TEMP    WIND        PRES    WAVE   SWELL
                          AIR SEA DIR/SP/G            HT/PER HT/PER
                          (F)     (DEG/KT/KT) (MB)    (FT/S) (FT/S)
SHELL POINT      NOT AVBL
KEATON BEACH               77      80/  5/  6 1016.8R
CEDAR KEY                                       N/A
FERNANDINA                 80 83  140/  6/ 11 1018.0
30.7N   81.3W                 82                N/A     3/ 4
MAYPORT                    80 82  140/  6/ 12 1017.4
31.4N   80.9W              81 83  160/ 14/ 16 1017.6F   2/ 4   2/ 7
ST AUGUSTINE               79 81  140/ 14/ 15 1017.4R

$$
FLZ040-043>046-052-053-057-058-063-144-180300-
INTERIOR CENTRAL FLORIDA
  
CITY           SKY/WX    TMP DP  RH WIND       PRES   REMARKS
OCALA          FAIR      76  72  87 SE3       30.04R                  
LEESBURG       FAIR      76  71  85 SE7       30.04S                  
SANFORD        FAIR      78  72  81 SE7       30.04R                  
ORLANDO EXEC   MOCLDY    75  72  90 SE6       30.05R                  
ORLANDO INTL   CLOUDY    75  72  90 E7        30.05R                  
KISSIMMEE      CLOUDY    75  74  96 SE7       30.06R                  
WINTER HAVEN   CLOUDY    75  73  93 SE7       30.05S                  
LAKELAND       MOCLDY    75  73  94 SE8       30.04R                  
BARTOW         FAIR      75  73  94 SE6       30.04R                  
SEBRING        CLOUDY    75  73  92 S12       30.05R                  
OKEECHOBEE     CLOUDY    73  72  94 S7        30.04S                  

$$
FLZ041-047-054-059-064-141-147-180300-
EAST CENTRAL FLORIDA
  
CITY           SKY/WX    TMP DP  RH WIND       PRES   REMARKS
DAYTONA BEACH  CLOUDY    78  76  93 VRB3      30.04R                  
DELAND         FAIR      77  73  88 E6        30.03S                  
NEW SMYRNA BEA MOCLDY    77  73  88 SE7       30.04F                  
JFK SPACE CTR  FAIR      77  65  66 S5        30.04S                  
CAPE CANAVERAL FAIR      76   8   7 S7        30.03S                  
PATRICK AFB    FAIR      78  77  99 S9        30.04R                  
MELBOURNE      FAIR      77  72  84 S6        30.04R                  
VERO BEACH     FAIR      76  72  87 SE10      30.04F                  
FT PIERCE      LGT RAIN  75  71  87 S9        30.04F                  
STUART         FAIR      77  72  83 SE6       30.07S                  

STATION/POSITION SKY/WX   TEMP    WIND        PRES    WAVE   SWELL
                          AIR SEA DIR/SP/G            HT/PER HT/PER
                          (F)     (DEG/KT/KT) (MB)    (FT/S) (FT/S)
28.5N   80.2W              78 80  150/ 10/ 14 1017.4R   4/ 5   2/ 8
28.9N   78.5W              81 83  150/ 16/ 19   N/A     3/ 5   2/ 8
TRIDENT PIER               76 80  140/  9/ 14 1018.6
28.4N   80.5W                 78                N/A     3/ 6
27.5N   80.2W                 77                N/A     2/ 5

$$
FLZ050-056-061-142-242-148-248-149-249-151-251-155-255-
160-260-180300-
WEST CENTRAL FLORIDA
  
CITY           SKY/WX    TMP DP  RH WIND       PRES   REMARKS
CRYSTAL RIVER  FAIR      73  73 100 CALM      30.03R                  
INVERNESS      FAIR      73  73 100 S5        30.04R                  
BROOKSVILLE    MOCLDY    75  73  93 E5        30.05R                  
CLEARWATER AIR FAIR      77  72  83 SE7       30.01R                  
ST PETE CLEARW MOCLDY    77  74  90 SE8       30.02R                  
TAMPA INTL     FAIR      77  74  90 SE5       30.02R                  
TAMPA EXEC     FAIR      73  72  94 CALM      30.04R FOG              
PLANT CITY     CLOUDY   N/A N/A N/A SE7       30.06R                  
MACDILL AFB    FAIR      77  74  88 SE7       30.02R                  
PETER O KNIGHT CLOUDY   N/A N/A N/A S5        30.03R                  
ST PETERSBURG    N/A    N/A N/A N/A MISG        N/A                   
SARASOTA       FAIR      80  75  84 SE7       30.00R                  
VENICE         FAIR      81  75  83 S12G20    30.03R                  

STATION/POSITION SKY/WX   TEMP    WIND        PRES    WAVE   SWELL
                          AIR SEA DIR/SP/G            HT/PER HT/PER
                          (F)     (DEG/KT/KT) (MB)    (FT/S) (FT/S)
27.3N   84.2W                 83                N/A     2/ 6
CLEARWATER BEACH                   90/  5/  7 1016.0
MIDDLE TAMPA BAY           79     170/  5/  7 1015.7
VENICE                     78 85  140/  8/ 10 1016.1F

$$
FLZ066-069-070-075>078-162-262-165-265-180300-
SOUTHWEST FLORIDA AND KEYS
  
CITY           SKY/WX    TMP DP  RH WIND       PRES   REMARKS
PUNTA GORDA    FAIR      75  72  90 S9        30.04R                  
FT MYERS       FAIR      68  68 100 SE3       30.03R                  
SOUTHWEST INTL LGT RAIN  81  73  76 SE7       30.04R                  
NAPLES         LGT RAIN  75  75 100 SE5       30.05S                  
IMMOKALEE      FAIR      75  73  94 S3        30.04R                  
MARATHON       CLOUDY    80  75  84 S13G21    30.06R                  
KEY WEST NAS   CLOUDY    82  71  69 S17       30.04S                  
KEY WEST INTL  FAIR      80  73  79 S14       30.04S                  

STATION/POSITION SKY/WX   TEMP    WIND        PRES    WAVE   SWELL
                          AIR SEA DIR/SP/G            HT/PER HT/PER
                          (F)     (DEG/KT/KT) (MB)    (FT/S) (FT/S)
NAPLES                     77 85              1017.2
DRY TORTUGAS               84     170/ 13/ 14 1016.6
SAND KEY                   80                 1016.9F
SOMBRERO KEY               78                 1017.2R

$$
FLZ067-068-071>074-168-172>174-180300-
SOUTHEAST FLORIDA 
  
CITY           SKY/WX    TMP DP  RH WIND       PRES   REMARKS
W PALM BEACH   MOCLDY    77  72  84 S3        30.08S                  
BOCA RATON     PTCLDY    75  73  94 SE6       30.07S                  
FT LAUDER-EXEC MOCLDY    78  74  87 E7        30.07S                  
FT LAUDERDALE  MOCLDY    79  75  87 SE12      30.07R                  
POMPANO BEACH  CLOUDY    79  74  84 SE14      30.08R                  
PEMBROKE PINES CLOUDY    78  74  87 SE6       30.09R                  
OPA LOCKA      MOCLDY    78  74  87 SE9       30.08R                  
MIAMI          MOCLDY    79  74  84 E10       30.08R                  
WEST KENDALL   CLOUDY    78  74  87 SE12      30.07R                  
HOMESTEAD      MOCLDY    77  73  87 E9        30.07R                  

STATION/POSITION SKY/WX   TEMP    WIND        PRES    WAVE   SWELL
                          AIR SEA DIR/SP/G            HT/PER HT/PER
                          (F)     (DEG/KT/KT) (MB)    (FT/S) (FT/S)
VIRGINIA KEY               79 83  100/ 10/ 13 1017.4
LAKE WORTH                 77 83  160/ 12/ 14 1019.4
SETTLEMENT POINT           76     140/  7/  8 1019.2S

$$